Temp
7 7 7 7 6 6 6 6 5 2 3 5 6 7 6 6 6 5 5 5 3 3 3 3 3 3 3 3 4 4 4 4 4 5 6 6 7 7
7 7 7 6 6 6 6 6 5 4 3 4 4 5 5 5 5 5 5 4 4 3 3 3 3 2 2 3 3 3 3 3 3 4 5 6 6 7
7 6 6 6 6 6 6 5 5 5 3 4 4 4 4 4 5 5 4 4 3 3 3 3 3 3 2 2 2 2 3 3 3 3 3 4 5 6
6 6 6 6 6 6 5 5 5 5 4 3 4 3 3 4 4 4 4 3 3 3 3 3 3 2 2 2 2 2 2 2 3 3 3 3 4 4
6 6 5 5 5 5 5 4 4 3 3 3 2 3 3 3 3 3 3 3 2 3 3 3 3 3 3 2 2 2 2 2 2 2 2 2 2 3
4 4 4 5 5 4 3 3 2 2 1 1 1 1 1 2 2 3 2 3 3 3 3 3 3 3 2 2 2 2 2 2 1 1 2 2 2 2
3 3 3 3 3 3 2 2 1 1 1 0 -0 0 0 1 1 2 1 2 2 2 3 2 2 2 2 2 2 2 2 2 2 2 1 1 1 2
2 2 2 2 2 2 1 1 1 1 0 -0 -0 -0 0 0 0 0 1 0 0 0 2 2 2 2 1 1 1 1 2 2 2 1 1 1 1 1
1 1 1 1 1 1 1 1 0 -0 0 0 0 0 0 0 0 0 -0 0 0 1 1 1 1 0 1 1 1 1 1 1 1 2 1 1 1 1
0 1 1 1 1 1 1 -0 -1 -1 -1 -0 -0 -0 0 0 0 0 0 -0 0 0 0 -0 0 -0 0 0 0 0 0 0 1 1 1 1 1 1
-1 -1 -1 -1 -0 0 0 -1 -1 -1 -1 -1 -1 -1 -1 -1 -1 -0 -1 -1 -1 -1 -0 -0 -0 -0 -1 -1 -1 -0 -0 0 0 -0 0 0 0 0
-1 -1 -1 -1 -0 -0 -0 -1 -2 -2 -2 -2 -2 -2 -2 -2 -1 -2 -2 -2 -1 -2 -1 -1 -1 -2 -2 -1 -1 -1 -1 -0 -0 -0 -0 0 -0 -1
-1 -2 -2 -2 -1 -1 -1 -2 -2 -2 -2 -2 -2 -2 -2 -2 -2 -2 -2 -2 -2 -2 -2 -2 -3 -3 -3 -3 -2 -2 -2 -1 -1 -1 -1 -1 -0 -0
-2 -2 -2 -2 -2 -2 -2 -2 -2 -3 -3 -4 -3 -3 -3 -3 -3 -3 -3 -3 -3 -3 -3 -3 -4 -4 -4 -4 -4 -3 -3 -2 -2 -1 -1 -1 -1 -1
-3 -3 -2 -3 -3 -3 -3 -3 -3 -4 -4 -4 -4 -4 -4 -4 -4 -4 -4 -4 -4 -4 -4 -4 -4 -4 -5 -4 -4 -3 -3 -2 -2 -2 -2 -1 -1 -1
-3 -4 -3 -4 -4 -4 -4 -4 -4 -4 -4 -5 -5 -5 -5 -5 -5 -4 -4 -4 -5 -4 -4 -4 -4 -4 -4 -4 -3 -3 -3 -3 -2 -2 -2 -2 -2 -2
-3 -4 -4 -5 -5 -5 -5 -5 -5 -5 -5 -5 -5 -5 -6 -5 -5 -5 -5 -5 -5 -5 -5 -4 -3 -4 -3 -3 -3 -3 -3 -3 -3 -3 -3 -3 -2 -2
-5 -5 -5 -5 -5 -6 -6 -6 -6 -6 -6 -6 -6 -6 -6 -6 -6 -5 -5 -5 -5 -5 -5 -4 -4 -3 -3 -3 -3 -3 -3 -3 -3 -3 -3 -3 -3 -3
-5 -6 -6 -6 -6 -6 -6 -6 -6 -6 -6 -6 -6 -6 -6 -6 -6 -6 -6 -5 -5 -5 -4 -4 -4 -3 -4 -4 -2 -3 -3 -3 -3 -3 -4 -4 -3 -3
-6 -6 -6 -6 -6 -6 -7 -7 -7 -6 -6 -6 -6 -6 -6 -6 -6 -6 -5 -5 -5 -4 -4 -3 -3 -3 -3 -4 -4 -3 -4 -4 -4 -4 -4 -4 -4 -4
-7 -7 -7 -7 -7 -7 -7 -6 -6 -6 -6 -6 -6 -6 -6 -6 -6 -6 -5 -4 -4 -4 -3 -4 -4 -4 -4 -4 -4 -4 -4 -5 -5 -5 -5 -6 -5 -5
-7 -7 -7 -7 -7 -7 -6 -6 -6 -6 -6 -6 -6 -6 -5 -5 -5 -5 -5 -5 -4 -3 -4 -4 -4 -4 -4 -5 -6 -5 -5 -5 -5 -5 -5 -5 -5 -7
-7 -7 -7 -7 -7 -7 -6 -6 -6 -6 -5 -5 -5 -5 -5 -5 -5 -5 -4 -4 -4 -4 -4 -4 -4 -5 -5 -5 -5 -5 -5 -5 -5 -5 -5 -5 -5 -5
Height
828 828 827 827 826 825 823 822 821 817 808 805 805 803 802 800 797 795 793 791 789 788 786 783 782 780 779 777 774 772 772 771 771 769 767 766 765 766
827 826 825 824 823 821 820 818 817 815 809 803 800 799 798 796 793 791 789 787 785 782 782 780 778 776 775 773 771 770 769 768 766 766 765 763 763 763
825 825 823 822 820 817 815 813 811 811 806 793 796 794 793 791 789 786 784 782 780 778 776 775 774 772 771 770 768 766 765 764 764 762 762 761 760 761
823 822 820 818 815 813 811 808 806 804 803 795 789 789 787 786 783 781 779 777 775 773 772 770 769 767 766 765 764 763 761 760 760 759 759 759 758 758
821 819 816 814 811 808 806 804 802 800 798 794 785 784 781 780 777 775 773 771 770 768 766 765 764 763 762 761 760 759 758 757 756 756 756 756 755 755
816 815 812 810 807 804 802 800 797 794 792 790 785 780 777 774 773 769 766 765 763 762 762 761 760 759 758 757 756 756 755 753 753 752 752 752 751 751
812 811 808 806 803 801 799 795 794 790 787 784 781 778 773 770 768 765 762 760 758 758 756 755 755 755 754 753 752 752 751 749 748 748 748 747 747 747
808 806 804 802 799 797 795 793 791 788 785 781 777 774 768 766 764 761 758 756 754 752 751 751 751 749 749 749 747 746 746 745 743 743 742 741 742 742
806 803 800 798 795 792 790 788 786 784 781 777 772 768 764 761 759 755 753 752 749 747 747 745 745 744 744 743 742 741 740 738 738 737 736 736 736 736
804 801 798 794 792 788 784 782 780 777 775 771 768 763 759 755 753 750 748 745 743 742 742 741 739 738 738 737 737 735 733 732 732 731 731 731 731 731
801 798 796 792 789 786 781 776 773 770 768 765 761 757 753 749 747 744 741 739 735 734 735 735 734 734 733 731 730 728 728 727 726 727 727 727 725 726
798 795 793 790 785 782 779 773 767 765 761 758 754 751 748 744 741 739 737 734 729 727 730 732 732 733 727 724 723 723 723 723 723 723 723 722 721 721
794 791 789 786 782 779 774 769 766 761 757 754 751 748 745 742 739 737 736 734 732 730 730 730 728 727 727 722 720 720 719 717 718 717 717 717 717 717
792 788 784 781 777 774 770 766 762 758 754 752 748 745 743 740 738 736 734 732 730 729 726 726 724 723 721 719 717 713 712 712 712 711 711 712 712 712
790 786 782 779 774 771 768 764 761 757 753 750 746 743 741 738 735 733 730 728 726 723 721 720 718 717 716 714 712 710 709 707 707 706 706 706 707 707
785 781 779 776 772 769 765 762 759 755 752 748 744 741 738 735 732 729 726 723 721 717 715 714 712 711 709 708 707 704 704 704 702 702 702 701 702 702
782 779 776 772 769 766 763 760 757 753 749 746 743 739 735 732 729 726 724 721 718 714 711 708 707 705 703 702 701 699 699 698 698 699 699 697 696 698
780 778 775 771 768 766 762 758 754 751 747 744 740 737 733 730 726 723 721 718 715 711 708 705 702 700 698 695 695 694 695 695 695 695 695 695 694 695
780 777 774 771 768 765 761 757 752 749 745 742 738 734 731 727 724 720 717 715 711 708 705 701 698 697 696 695 693 692 694 694 694 694 694 694 693 694
778 776 773 769 766 763 758 755 750 746 743 739 735 731 728 725 721 718 715 712 708 704 701 697 695 695 695 695 694 692 692 693 693 693 693 693 692 691
776 774 770 767 764 760 756 753 749 745 741 737 733 729 725 723 719 716 713 710 707 703 700 699 697 696 695 694 693 693 693 692 692 691 691 690 689 687
774 771 768 765 761 758 754 750 746 743 739 735 731 727 723 720 717 714 711 708 705 702 701 699 698 696 696 695 695 694 693 692 691 689 688 688 688 687
772 769 765 762 758 755 752 748 745 741 737 733 729 725 721 718 715 712 709 707 704 702 701 700 698 697 696 696 695 694 693 691 689 688 687 685 684 683
Wind_Speed
5 7 10 12 13 16 17 17 13 5 7 8 16 12 16 18 19 19 21 28 23 20 21 20 18 17 15 14 13 13 13 14 15 15 15 14 13 10
8 11 15 16 17 18 20 21 20 20 8 16 23 27 27 26 26 26 28 27 27 22 21 20 19 17 16 16 15 14 14 14 14 15 14 14 13 14
12 14 17 19 22 23 23 23 24 22 16 33 27 28 28 26 28 27 27 26 26 28 22 20 18 18 17 16 16 16 15 15 15 14 15 13 13 13
16 18 20 21 22 23 23 24 25 25 26 23 31 27 28 28 29 29 29 29 27 26 23 22 20 19 18 16 16 15 15 15 14 14 14 14 13 13
17 20 23 24 26 26 25 25 23 22 23 25 29 27 29 28 29 28 29 28 26 26 23 21 19 17 17 18 18 17 16 15 15 15 15 14 13 13
20 21 23 24 25 21 20 21 23 24 25 22 24 26 26 28 25 28 27 27 28 24 19 17 19 20 18 16 14 14 16 17 15 15 15 14 13 14
22 21 21 21 23 25 20 21 23 24 24 20 22 22 22 22 20 23 24 25 22 23 21 17 18 21 19 15 17 18 17 17 15 15 16 17 16 15
23 21 21 22 19 19 20 19 19 22 24 21 21 19 24 23 24 24 22 16 7 19 21 19 16 23 24 26 28 18 19 19 20 19 20 19 18 17
20 21 22 20 21 21 23 22 20 22 23 27 26 25 26 28 26 26 22 22 20 22 18 19 22 20 26 25 17 18 22 24 22 21 18 18 18 19
18 20 20 22 22 22 23 22 26 26 25 26 27 30 28 29 29 27 27 26 24 22 16 10 22 21 21 19 21 24 21 21 21 18 16 19 21 21
17 19 21 24 23 23 24 25 24 24 27 23 25 25 26 24 23 24 21 17 16 17 17 13 17 20 20 21 23 23 20 18 13 7 12 16 13 14
20 20 22 22 24 25 27 26 19 26 25 26 26 23 19 22 18 16 18 15 20 4 6 3 8 15 7 17 10 4 11 11 13 17 18 15 15 11
22 22 22 25 25 27 27 23 22 28 25 22 21 22 21 19 19 19 16 13 14 10 13 13 12 17 15 17 22 25 24 22 22 20 17 16 16 16
22 24 28 27 26 28 26 23 23 20 23 22 20 19 19 20 21 19 17 18 19 21 23 20 17 17 16 14 14 21 22 20 20 21 20 18 16 15
24 25 26 26 25 20 22 22 20 22 22 19 16 18 20 20 20 21 20 21 22 22 19 20 21 23 22 19 16 16 17 18 20 20 20 16 15 15
25 23 21 20 19 22 21 21 21 20 19 19 19 20 20 23 21 21 22 22 21 24 21 16 16 20 22 21 21 20 18 11 12 13 15 16 15 14
27 19 19 22 22 21 19 19 19 20 19 20 22 22 20 20 21 22 20 21 18 17 19 21 18 18 20 22 18 18 17 18 15 14 13 14 14 12
18 20 17 18 17 17 19 20 20 20 21 22 22 23 21 21 22 23 22 18 16 17 18 21 22 17 14 10 13 17 13 13 12 10 7 9 11 8
18 17 17 17 17 20 20 20 21 22 24 24 23 22 23 22 20 21 19 17 16 16 19 21 19 13 2 2 4 10 8 6 3 3 6 8 8 9
16 17 18 19 19 20 21 21 23 24 24 23 22 23 22 21 19 17 17 17 17 19 19 19 12 3 2 1 2 2 4 4 4 4 7 10 13 14
17 18 19 21 20 21 22 23 23 24 22 23 22 22 22 20 19 19 19 18 18 17 8 10 9 6 5 4 4 3 4 7 6 8 9 9 12 9
19 20 21 22 22 22 23 23 23 23 23 23 23 23 22 21 20 20 20 18 17 11 7 6 8 7 7 7 6 10 11 9 9 8 7 9 9 2
21 21 23 22 22 20 21 21 21 23 24 24 25 25 23 20 19 19 18 15 11 9 9 7 7 6 6 6 8 10 9 11 9 11 11 7 6 8
Wind_Direction
285 288 290 297 297 294 289 279 273 295 296 294 293 290 305 306 304 296 290 302 304 297 297 298 296 297 295 296 302 306 304 303 307 305 304 294 296 297
289 293 298 299 297 294 289 283 268 260 279 286 286 292 296 294 294 292 293 295 300 294 294 292 289 291 292 292 293 297 298 302 305 305 305 300 295 282
298 298 298 300 297 299 294 283 275 267 262 282 283 290 291 290 288 287 292 291 287 292 289 286 285 288 289 290 290 293 294 295 297 299 297 300 289 284
304 304 301 301 297 297 299 296 287 281 270 275 288 289 290 293 289 288 287 286 288 287 285 283 281 286 287 288 291 294 294 294 292 292 293 292 291 284
303 302 300 300 296 298 298 296 299 304 304 301 295 297 294 293 291 287 286 285 287 284 280 279 282 285 289 290 290 290 291 293 290 286 289 287 285 283
305 304 302 302 304 307 312 309 307 304 303 297 294 298 298 298 292 288 283 280 285 286 273 284 290 291 291 292 290 291 294 297 291 285 282 279 282 284
311 308 306 305 306 309 312 315 314 308 303 295 292 297 298 300 291 288 282 283 286 280 280 273 289 294 282 274 284 296 292 293 290 285 286 278 280 281
313 317 313 312 312 310 309 308 308 311 305 297 291 289 290 291 293 292 289 283 284 286 273 276 273 291 289 291 297 285 293 290 286 286 285 274 276 280
319 318 318 317 316 315 312 308 307 305 300 300 296 291 289 289 288 287 285 280 273 277 269 272 286 285 287 294 291 286 293 290 285 284 277 279 277 278
325 324 326 325 323 316 313 315 312 314 306 302 295 296 299 297 289 284 285 287 286 281 273 274 287 285 290 282 281 287 290 284 281 280 282 283 275 270
330 326 325 322 321 316 317 312 308 311 315 309 306 299 307 302 297 298 284 267 274 272 280 269 278 290 296 291 292 292 284 280 274 268 301 296 283 268
330 327 324 320 318 318 316 310 308 316 314 318 319 319 314 315 324 317 295 308 270 203 253 293 295 312 296 293 291 324 331 272 275 285 292 290 280 293
324 324 321 320 318 322 322 321 309 314 320 316 318 325 322 314 324 327 321 310 304 292 292 301 284 288 271 279 282 289 293 282 286 288 288 280 277 278
324 321 319 321 326 322 324 322 327 332 334 331 327 329 329 330 328 320 311 311 302 300 301 294 281 282 277 280 283 287 288 286 283 281 283 279 275 273
320 319 322 323 326 332 331 329 331 332 329 324 320 317 321 328 324 323 317 314 308 303 297 293 284 279 267 262 268 271 278 284 286 280 280 277 274 269
322 324 325 331 333 332 335 335 335 332 327 329 326 327 324 324 320 324 318 316 313 309 314 308 290 280 261 255 256 265 264 255 278 278 287 283 271 264
326 332 337 338 335 332 332 332 333 335 332 330 328 326 320 317 317 324 322 314 298 296 302 312 311 294 285 276 262 261 266 266 273 283 279 276 270 260
343 342 333 331 328 332 328 326 330 329 327 325 322 322 315 315 316 320 321 310 299 299 297 304 310 302 294 290 266 257 268 274 285 281 279 270 278 279
340 329 326 325 326 324 322 325 322 323 328 326 323 320 322 319 317 315 313 308 303 300 298 304 297 283 275 266 301 236 245 283 273 273 294 286 274 283
332 324 323 322 322 321 324 323 322 324 323 324 323 324 324 318 310 309 310 305 301 302 301 311 308 345 336 340 321 288 290 290 303 295 296 292 283 280
328 325 326 324 322 323 326 326 326 325 325 329 327 324 324 322 313 313 313 316 317 312 330 3 4 3 9 2 354 16 6 342 323 309 298 290 287 281
327 327 327 327 328 331 334 333 332 332 336 338 336 335 334 330 322 320 320 312 318 336 353 347 4 13 31 29 11 348 345 342 335 328 306 276 256 275
332 331 331 334 337 338 337 338 338 340 342 340 340 335 335 332 333 332 334 334 350 7 3 353 358 1 360 10 350 340 338 338 339 346 339 324 312 290